• en Suisse
  • Liste des pays
  • À 7 jours
  • Température de l'eau
  • Carte satellitaire
  • Carte météo
  • Widgets météo
  • user-avatar
    Se connecter

    Météo par heure à Seredy

    Ce jour, 22 Septembre, Samedi

    Heure Température Précipitation Vent Pression Humidité
    00:00 +17°C° 0 mm 3 m/s 744 mmHg 61%
    01:00 +17°C° 0 mm 3 m/s 743 mmHg 60%
    02:00 +17°C° 0 mm 3 m/s 743 mmHg 59%
    03:00 +16°C° 0 mm 3 m/s 743 mmHg 59%
    04:00 +15°C° 0 mm 4 m/s 743 mmHg 60%
    05:00 +15°C° 0 mm 4 m/s 742 mmHg 60%
    06:00 +15°C° 0 mm 4 m/s 742 mmHg 61%
    07:00 +17°C° 0 mm 4 m/s 742 mmHg 61%
    08:00 +18°C° 0 mm 4 m/s 742 mmHg 62%
    09:00 +19°C° 0 mm 4 m/s 742 mmHg 59%
    10:00 +21°C° 0 mm 5 m/s 742 mmHg 57%
    11:00 +23°C° 0 mm 5 m/s 743 mmHg 54%
    12:00 +22°C° 0 mm 5 m/s 743 mmHg 60%
    13:00 +20°C° 0 mm 6 m/s 743 mmHg 66%
    14:00 +19°C° 0 mm 6 m/s 743 mmHg 71%
    15:00 +17°C° 0.1 mm 6 m/s 744 mmHg 73%
    16:00 +15°C° 0.1 mm 5 m/s 744 mmHg 75%
    17:00 +14°C° 0.1 mm 5 m/s 744 mmHg 77%
    18:00 +13°C° 0.6 mm 4 m/s 744 mmHg 81%
    19:00 +12°C° 0.6 mm 4 m/s 745 mmHg 85%
    20:00 +11°C° 0.6 mm 3 m/s 745 mmHg 89%
    21:00 +11°C° 0.6 mm 3 m/s 745 mmHg 91%
    22:00 +10°C° 0.6 mm 2 m/s 745 mmHg 92%
    23:00 +10°C° 0.6 mm 2 m/s 745 mmHg 94%

    Demain, 23 Septembre, Dimanche

    Heure Température Précipitation Vent Pression Humidité
    00:00 +10°C° 0 mm 2 m/s 745 mmHg 95%
    01:00 +9°C° 0 mm 2 m/s 745 mmHg 96%
    02:00 +9°C° 0 mm 3 m/s 745 mmHg 96%
    03:00 +9°C° 0 mm 3 m/s 745 mmHg 96%
    04:00 +8°C° 0 mm 3 m/s 745 mmHg 96%
    05:00 +8°C° 0 mm 3 m/s 745 mmHg 96%
    06:00 +9°C° 0 mm 3 m/s 745 mmHg 92%
    07:00 +10°C° 0 mm 3 m/s 745 mmHg 88%
    08:00 +10°C° 0 mm 3 m/s 745 mmHg 85%
    09:00 +12°C° 0 mm 4 m/s 745 mmHg 75%
    10:00 +14°C° 0 mm 4 m/s 745 mmHg 66%
    11:00 +16°C° 0 mm 5 m/s 745 mmHg 56%
    12:00 +16°C° 0 mm 5 m/s 745 mmHg 53%
    13:00 +17°C° 0 mm 5 m/s 744 mmHg 49%
    14:00 +17°C° 0 mm 5 m/s 744 mmHg 46%
    15:00 +18°C° 0 mm 4 m/s 744 mmHg 50%
    16:00 +17°C° 0 mm 3 m/s 744 mmHg 55%
    17:00 +16°C° 0 mm 3 m/s 743 mmHg 60%
    18:00 +14°C° 0 mm 3 m/s 743 mmHg 63%
    19:00 +13°C° 0 mm 3 m/s 743 mmHg 67%
    20:00 +13°C° 0 mm 2 m/s 743 mmHg 70%
    21:00 +12°C° 0 mm 3 m/s 743 mmHg 73%
    22:00 +11°C° 0 mm 3 m/s 742 mmHg 75%
    23:00 +11°C° 0 mm 3 m/s 742 mmHg 77%

    Après-demain, 24 Septembre, Lundi

    Heure Température Précipitation Vent Pression Humidité
    00:00 +11°C° 0 mm 3 m/s 741 mmHg 77%
    01:00 +11°C° 0 mm 4 m/s 740 mmHg 77%
    02:00 +12°C° 0 mm 4 m/s 739 mmHg 77%
    03:00 +12°C° 0.1 mm 5 m/s 738 mmHg 71%
    04:00 +13°C° 0.1 mm 6 m/s 736 mmHg 65%
    05:00 +12°C° 0.1 mm 7 m/s 735 mmHg 59%
    06:00 +13°C° 0.7 mm 8 m/s 733 mmHg 66%
    07:00 +13°C° 0.7 mm 8 m/s 732 mmHg 72%
    08:00 +13°C° 0.7 mm 9 m/s 731 mmHg 79%
    09:00 +13°C° 0.2 mm 9 m/s 731 mmHg 79%
    10:00 +15°C° 0.2 mm 9 m/s 730 mmHg 78%
    11:00 +16°C° 0.2 mm 10 m/s 729 mmHg 77%
    12:00 +13°C° 0 mm 11 m/s 730 mmHg 75%
    13:00 +12°C° 0 mm 12 m/s 731 mmHg 72%
    14:00 +9°C° 0 mm 13 m/s 732 mmHg 70%
    15:00 +9°C° 0.1 mm 12 m/s 733 mmHg 69%
    16:00 +9°C° 0.1 mm 10 m/s 735 mmHg 68%
    17:00 +10°C° 0.1 mm 9 m/s 736 mmHg 68%
    18:00 +8°C° 0.1 mm 9 m/s 737 mmHg 68%
    19:00 +8°C° 0.1 mm 9 m/s 738 mmHg 69%
    20:00 +8°C° 0.1 mm 9 m/s 738 mmHg 70%
    21:00 +9°C° 0 mm 8 m/s 739 mmHg 70%
    22:00 +7°C° 0 mm 8 m/s 739 mmHg 70%
    23:00 +8°C° 0 mm 7 m/s 739 mmHg 70%

    25 Septembre, Mardi

    Heure Température Précipitation Vent Pression Humidité
    00:00 +6°C° 0 mm 7 m/s 740 mmHg 73%
    01:00 +6°C° 0 mm 7 m/s 740 mmHg 76%
    02:00 +6°C° 0 mm 7 m/s 741 mmHg 79%
    03:00 +6°C° 0.3 mm 7 m/s 741 mmHg 81%
    04:00 +6°C° 0.3 mm 7 m/s 742 mmHg 82%
    05:00 +5°C° 0.3 mm 6 m/s 743 mmHg 83%
    06:00 +5°C° 0.1 mm 7 m/s 743 mmHg 81%
    07:00 +5°C° 0.1 mm 7 m/s 744 mmHg 80%
    08:00 +5°C° 0.1 mm 7 m/s 745 mmHg 78%
    09:00 +6°C° 0 mm 8 m/s 746 mmHg 71%
    10:00 +7°C° 0 mm 8 m/s 746 mmHg 64%
    11:00 +9°C° 0 mm 8 m/s 747 mmHg 57%
    12:00 +9°C° 0.2 mm 8 m/s 747 mmHg 56%
    13:00 +9°C° 0.2 mm 8 m/s 747 mmHg 55%
    14:00 +10°C° 0.2 mm 8 m/s 747 mmHg 53%
    15:00 +9°C° 0.1 mm 7 m/s 748 mmHg 54%
    16:00 +9°C° 0.1 mm 6 m/s 748 mmHg 55%
    17:00 +9°C° 0.1 mm 5 m/s 748 mmHg 56%
    18:00 +8°C° 0 mm 5 m/s 749 mmHg 58%
    19:00 +7°C° 0 mm 5 m/s 749 mmHg 61%
    20:00 +6°C° 0 mm 5 m/s 750 mmHg 64%
    21:00 +5°C° 0 mm 5 m/s 750 mmHg 65%
    22:00 +5°C° 0 mm 5 m/s 750 mmHg 66%
    23:00 +5°C° 0 mm 4 m/s 750 mmHg 68%

    26 Septembre, Mercredi

    Heure Température Précipitation Vent Pression Humidité
    00:00 +5°C° 0 mm 5 m/s 750 mmHg 68%
    01:00 +5°C° 0 mm 5 m/s 750 mmHg 69%
    02:00 +5°C° 0 mm 5 m/s 749 mmHg 70%
    03:00 +5°C° 0.1 mm 5 m/s 749 mmHg 70%
    04:00 +4°C° 0.1 mm 6 m/s 748 mmHg 71%
    05:00 +4°C° 0.1 mm 6 m/s 748 mmHg 72%
    06:00 +4°C° 0.9 mm 7 m/s 747 mmHg 75%
    07:00 +5°C° 0.9 mm 7 m/s 747 mmHg 79%
    08:00 +5°C° 0.9 mm 8 m/s 746 mmHg 82%
    09:00 +5°C° 0.5 mm 8 m/s 746 mmHg 81%
    10:00 +6°C° 0.5 mm 8 m/s 746 mmHg 80%
    11:00 +8°C° 0.5 mm 7 m/s 746 mmHg 79%
    12:00 +9°C° 0.4 mm 7 m/s 746 mmHg 74%
    13:00 +9°C° 0.4 mm 7 m/s 746 mmHg 69%
    14:00 +10°C° 0.4 mm 7 m/s 747 mmHg 63%
    15:00 +9°C° 0.2 mm 6 m/s 747 mmHg 66%
    16:00 +9°C° 0.2 mm 5 m/s 747 mmHg 68%
    17:00 +8°C° 0.2 mm 4 m/s 748 mmHg 71%
    18:00 +7°C° 0 mm 4 m/s 748 mmHg 75%
    19:00 +7°C° 0 mm 3 m/s 749 mmHg 79%
    20:00 +5°C° 0 mm 3 m/s 750 mmHg 83%
    21:00 +5°C° 0 mm 3 m/s 750 mmHg 84%
    22:00 +5°C° 0 mm 3 m/s 750 mmHg 86%
    23:00 +4°C° 0 mm 3 m/s 751 mmHg 88%

    27 Septembre, Jeudi

    Heure Température Précipitation Vent Pression Humidité
    00:00 +4°C° 0 mm 3 m/s 751 mmHg 89%
    01:00 +4°C° 0 mm 2 m/s 751 mmHg 90%
    02:00 +4°C° 0 mm 2 m/s 751 mmHg 92%
    03:00 +4°C° 0 mm 2 m/s 751 mmHg 91%
    04:00 +4°C° 0 mm 2 m/s 752 mmHg 91%
    05:00 +3°C° 0 mm 2 m/s 752 mmHg 91%
    06:00 +4°C° 0 mm 2 m/s 752 mmHg 87%
    07:00 +5°C° 0 mm 2 m/s 752 mmHg 83%
    08:00 +7°C° 0 mm 2 m/s 752 mmHg 79%
    09:00 +9°C° 0 mm 3 m/s 752 mmHg 72%
    10:00 +10°C° 0 mm 3 m/s 752 mmHg 65%
    11:00 +12°C° 0 mm 4 m/s 751 mmHg 58%
    12:00 +13°C° 0 mm 4 m/s 751 mmHg 59%
    13:00 +14°C° 0 mm 4 m/s 750 mmHg 60%
    14:00 +14°C° 0 mm 5 m/s 750 mmHg 61%
    15:00 +14°C° 0 mm 4 m/s 749 mmHg 64%
    16:00 +13°C° 0 mm 4 m/s 749 mmHg 67%
    17:00 +13°C° 0 mm 3 m/s 748 mmHg 70%
    18:00 +12°C° 0 mm 3 m/s 748 mmHg 73%
    19:00 +12°C° 0 mm 3 m/s 748 mmHg 75%
    20:00 +11°C° 0 mm 3 m/s 747 mmHg 77%
    21:00 +11°C° 0 mm 4 m/s 747 mmHg 77%
    22:00 +11°C° 0 mm 4 m/s 747 mmHg 77%
    23:00 +9°C° 0 mm 5 m/s 747 mmHg 76%
    Voir plus